Temperature
4 4 4 4 4 4 3 3 3 2 2 3 3 4 3 3 3 3 3 3 3 3 3 3 3 3 3 3 3 3 3 3 3 3 3 3 4 4
3 3 3 3 3 3 3 3 2 2 2 2 3 3 3 3 3 3 3 3 3 3 3 3 3 3 3 3 3 2 2 2 2 3 3 3 3 3
3 3 3 2 2 2 2 2 2 2 1 2 2 2 2 2 2 2 2 2 2 2 2 2 2 2 2 2 2 2 2 2 2 2 2 3 3 3
2 2 2 2 2 2 2 2 2 1 1 1 2 2 1 1 2 1 1 1 1 1 1 1 1 1 1 1 1 1 2 2 2 2 2 2 2 2
2 2 1 1 1 1 1 1 1 1 1 1 1 1 1 1 1 1 1 1 1 1 1 1 1 1 1 1 1 1 1 1 1 1 2 2 2 2
1 1 1 1 1 1 1 1 1 1 1 1 1 1 1 1 0 0 0 1 1 1 1 1 1 1 1 1 1 1 1 1 1 1 1 1 1 1
1 0 0 0 0 0 0 0 0 0 0 0 0 0 0 -0 -0 -0 -0 -0 0 0 0 0 0 1 1 1 0 1 1 0 0 1 1 1 1 1
-0 0 0 0 0 0 0 0 0 0 0 -0 -0 -0 -0 -0 -1 -1 -1 -1 -1 -1 -0 -0 0 0 0 0 0 -0 0 0 0 0 0 0 0 0
-1 -0 -0 -0 -0 -0 -0 -0 -0 -0 -1 -1 -0 -0 -1 -1 -1 -1 -1 -1 -1 -1 -1 -1 -0 -0 -0 -0 -0 -0 -0 -0 -0 -0 -0 -0 -0 -0
-1 -1 -1 -1 -1 -1 -1 -0 -1 -1 -1 -1 -1 -1 -1 -1 -1 -1 -1 -2 -1 -1 -1 -1 -1 -1 -1 -1 -1 -1 -1 -1 -1 -1 -1 -1 -1 -0
-2 -2 -2 -2 -1 -1 -1 -1 -1 -1 -1 -1 -1 -1 -1 -1 -2 -2 -2 -2 -2 -2 -2 -2 -2 -1 -1 -1 -1 -1 -1 -1 -1 -1 -1 -1 -1 -1
-2 -2 -2 -2 -2 -2 -2 -2 -2 -2 -1 -1 -2 -2 -2 -2 -2 -2 -2 -2 -2 -2 -2 -2 -2 -2 -2 -2 -1 -2 -2 -2 -2 -1 -1 -1 -1 -1
-3 -3 -3 -3 -3 -3 -3 -2 -2 -2 -2 -2 -2 -2 -2 -2 -2 -2 -2 -3 -3 -3 -3 -3 -3 -3 -3 -3 -2 -2 -2 -2 -2 -2 -1 -1 -1 -2
-3 -3 -3 -3 -3 -3 -3 -3 -3 -3 -3 -3 -3 -3 -3 -3 -3 -3 -3 -3 -3 -3 -3 -3 -3 -3 -3 -3 -3 -2 -2 -2 -2 -2 -2 -2 -2 -2
-4 -4 -4 -4 -4 -3 -3 -3 -3 -3 -3 -3 -3 -3 -3 -3 -3 -3 -3 -3 -3 -3 -3 -3 -3 -3 -3 -4 -3 -3 -3 -3 -3 -3 -3 -2 -2 -2
-4 -4 -4 -4 -4 -4 -4 -4 -4 -4 -4 -4 -4 -4 -4 -4 -3 -3 -3 -3 -3 -3 -3 -3 -3 -3 -3 -3 -4 -3 -3 -3 -3 -3 -3 -3 -3 -3
-4 -4 -4 -4 -4 -4 -4 -4 -4 -4 -4 -4 -4 -4 -4 -4 -4 -4 -4 -4 -4 -3 -3 -3 -3 -3 -4 -4 -4 -4 -3 -3 -3 -3 -3 -3 -3 -3
-5 -5 -5 -5 -5 -5 -5 -5 -5 -5 -5 -5 -5 -5 -5 -4 -4 -4 -4 -4 -4 -4 -4 -4 -4 -4 -4 -4 -4 -4 -4 -4 -4 -3 -3 -3 -3 -3
-5 -5 -5 -5 -5 -5 -5 -5 -5 -5 -5 -5 -5 -5 -5 -5 -5 -5 -4 -4 -4 -4 -4 -4 -4 -4 -5 -5 -4 -4 -4 -4 -4 -4 -4 -4 -3 -3
-5 -5 -6 -6 -6 -6 -6 -6 -6 -6 -6 -6 -6 -6 -5 -5 -5 -5 -5 -5 -5 -5 -5 -5 -5 -5 -5 -5 -5 -4 -4 -4 -4 -4 -4 -4 -4 -3
-6 -6 -6 -6 -6 -6 -6 -6 -6 -6 -6 -6 -6 -6 -6 -6 -6 -5 -5 -5 -5 -5 -5 -5 -5 -5 -5 -5 -5 -5 -4 -4 -4 -4 -4 -4 -4 -4
-6 -6 -6 -6 -6 -6 -6 -6 -6 -6 -6 -6 -6 -6 -6 -6 -6 -6 -6 -6 -5 -5 -5 -5 -5 -5 -5 -5 -5 -5 -5 -4 -4 -4 -4 -4 -4 -4
-6 -6 -6 -6 -6 -6 -6 -6 -6 -6 -6 -6 -6 -6 -6 -6 -6 -6 -6 -6 -6 -6 -6 -6 -5 -5 -5 -5 -5 -5 -5 -5 -4 -4 -4 -4 -4 -4
Wind_Speed
4 5 4 3 3 3 3 3 3 4 5 3 2 2 3 4 7 6 6 9 11 11 11 11 11 12 12 12 13 13 13 14 15 16 16 17 17 17
3 4 4 3 3 3 4 3 4 4 5 3 3 3 3 5 7 7 8 10 10 11 11 11 11 11 12 12 12 13 14 14 15 15 16 16 16 16
4 4 5 4 4 4 3 3 4 4 5 5 3 3 3 3 5 6 7 7 8 10 11 11 11 11 12 12 13 13 14 14 15 15 15 15 15 15
5 4 5 4 5 4 4 4 4 4 4 6 4 3 3 3 3 4 5 6 7 9 10 11 11 11 11 12 13 13 14 14 13 13 14 14 15 15
5 5 6 5 5 4 5 5 4 4 4 4 5 3 2 2 3 4 4 5 6 8 10 11 11 11 11 12 12 12 12 12 12 13 13 14 15 15
5 5 6 6 6 6 5 5 4 4 3 4 4 3 3 2 2 3 4 4 5 6 8 9 9 10 11 11 11 11 11 12 12 12 13 14 14 14
4 4 5 6 7 6 5 5 5 4 4 4 4 3 3 2 3 3 5 5 4 4 4 5 5 5 7 9 10 10 11 12 12 13 13 13 13 13
2 2 3 4 5 6 7 6 6 5 5 4 4 5 5 4 3 4 4 4 4 2 2 4 3 5 5 5 8 10 11 12 12 12 12 12 12 13
2 2 2 2 3 2 3 4 5 6 6 5 5 5 5 4 4 4 4 5 5 3 3 5 3 4 5 7 9 10 11 11 11 11 12 12 12 12
2 2 2 2 2 2 1 2 2 3 4 4 4 5 5 4 4 4 4 5 4 3 2 4 4 4 5 5 9 9 10 10 11 12 12 12 12 12
2 2 1 2 3 3 1 2 2 2 3 4 5 5 6 6 4 2 2 3 4 3 2 2 3 4 4 4 6 9 9 10 11 12 12 12 12 12
1 1 3 3 4 4 1 1 2 3 2 2 3 4 3 3 4 2 3 3 4 3 1 1 2 3 3 2 3 4 6 9 11 12 13 12 12 8
1 2 2 4 4 4 3 1 3 3 1 2 2 2 2 2 1 1 1 3 4 4 2 1 2 2 3 4 3 3 4 5 7 8 11 12 11 8
1 1 2 4 4 4 3 3 4 3 1 1 1 2 2 2 2 1 1 1 3 4 4 2 2 3 3 5 5 4 4 4 5 6 7 10 10 9
1 2 3 4 4 3 4 5 4 2 1 1 2 2 2 2 2 2 2 2 2 3 3 3 3 3 3 4 5 5 5 4 4 4 5 5 5 5
1 2 4 4 4 4 4 4 2 2 1 1 2 2 2 2 2 2 2 3 3 3 3 3 3 3 4 5 5 6 5 4 4 5 5 5 5 4
1 1 2 2 2 3 3 3 3 2 2 2 2 2 2 2 2 2 2 2 2 3 4 3 2 2 4 4 4 5 5 5 5 5 4 5 5 4
2 2 2 2 2 2 2 3 2 3 3 2 2 2 2 3 3 2 2 2 2 3 3 3 3 3 2 2 3 4 4 4 5 5 4 4 5 4
2 1 1 1 2 2 2 2 2 3 2 2 2 2 2 3 3 3 2 2 2 3 3 3 3 2 3 4 3 2 3 4 5 5 4 3 5 5
1 1 1 1 2 2 2 2 3 3 2 2 2 2 2 2 2 3 2 3 3 3 3 3 2 2 2 3 4 4 5 4 4 5 5 4 4 6
1 1 1 1 2 2 2 2 3 3 3 2 2 2 2 2 2 2 3 4 3 3 3 4 4 5 3 2 3 4 4 5 5 4 4 4 4 4
1 2 2 2 2 2 2 2 3 3 3 2 2 2 2 2 2 2 2 3 3 3 3 4 4 3 2 2 3 5 5 5 6 7 6 5 3 2
2 2 2 2 2 2 2 3 3 3 3 3 3 3 3 2 2 2 2 2 3 3 3 3 4 3 2 2 3 4 5 5 5 5 5 7 6 7
Wind_Direction
227 218 218 223 218 216 207 198 206 254 264 252 252 266 291 291 290 292 292 298 300 298 298 298 300 304 305 307 308 308 309 310 311 311 310 308 308 310
228 223 223 222 222 217 213 213 213 227 256 256 251 271 289 292 294 298 292 297 299 296 294 294 297 300 302 304 306 307 307 308 308 307 307 307 307 308
226 224 230 220 218 220 216 213 219 221 252 272 261 272 263 275 296 297 295 293 293 295 298 298 297 298 300 302 303 303 305 305 306 308 307 308 307 307
229 224 235 230 220 219 219 221 225 225 238 270 278 267 262 264 274 283 295 296 292 296 299 299 298 299 300 301 301 301 303 304 306 309 310 309 307 306
227 225 230 225 225 225 224 226 230 239 237 255 272 268 268 274 287 287 285 289 296 299 299 297 295 297 299 301 303 304 305 304 306 308 309 310 310 307
229 228 231 227 226 227 230 226 225 233 239 250 267 276 273 272 272 282 295 291 293 301 297 295 294 297 300 302 304 306 307 305 306 308 310 309 310 309
236 237 239 239 238 239 240 230 222 228 235 250 264 276 272 272 269 270 285 297 288 280 288 291 295 296 300 300 301 303 305 308 309 307 308 309 309 313
243 255 253 242 250 258 260 259 247 234 236 243 259 264 268 261 265 273 282 294 294 284 289 291 289 284 291 293 298 303 307 310 311 312 311 311 312 314
239 256 283 283 285 249 268 283 279 271 256 248 253 260 262 253 256 268 269 275 274 283 296 290 291 287 298 302 306 309 312 312 311 314 315 312 310 309
263 255 255 270 275 274 264 283 278 278 269 258 246 255 258 252 245 249 259 275 272 268 263 281 293 290 299 305 308 312 316 317 320 321 318 314 312 310
314 304 296 271 286 307 305 276 285 290 294 287 285 284 283 278 271 270 267 280 285 281 248 266 287 295 294 294 311 319 322 323 325 326 323 319 315 312
345 337 313 303 304 308 278 254 276 287 300 319 320 315 314 310 300 274 252 264 283 286 259 270 292 316 311 294 307 326 326 321 322 322 323 322 317 316
340 328 311 320 322 318 314 290 288 306 312 297 304 319 329 333 325 322 273 255 264 270 269 268 287 295 287 299 305 304 313 318 323 322 324 325 321 318
332 318 325 340 341 337 329 332 335 334 328 322 322 322 321 316 306 307 302 279 260 264 267 261 263 271 284 292 296 306 310 315 320 319 324 325 327 321
355 356 3 5 358 352 347 351 357 352 346 329 316 306 301 297 304 311 314 315 301 285 273 259 255 263 263 270 283 294 304 305 312 313 320 323 324 328
19 15 12 17 16 6 2 3 4 354 342 314 307 314 317 315 310 307 308 312 311 305 302 283 262 251 264 269 274 287 292 295 310 312 310 314 323 323
57 59 41 27 21 10 8 7 3 1 354 340 329 329 328 326 317 310 300 310 305 302 312 316 312 269 253 263 278 283 289 293 295 302 310 315 312 317
57 64 36 22 8 355 355 357 356 351 341 335 337 334 329 330 330 326 315 307 306 306 309 317 323 318 303 282 253 276 291 296 303 307 304 306 312 319
61 61 24 0 346 341 340 339 333 329 329 334 337 333 329 330 333 333 329 323 319 317 317 321 326 325 323 319 314 285 288 304 312 314 311 303 303 312
47 29 342 328 320 321 325 324 322 325 328 330 329 328 328 324 326 331 335 333 324 323 326 328 330 321 294 290 295 306 311 301 308 315 319 313 302 304
349 333 318 306 303 307 307 305 306 309 319 323 322 322 320 316 317 323 324 328 331 325 323 319 308 310 295 294 302 313 320 321 305 297 312 315 316 324
321 308 306 302 299 297 299 302 305 312 321 320 318 320 314 310 316 322 329 330 327 322 315 316 322 329 334 324 316 317 325 332 335 327 311 290 291 312
306 300 298 298 295 294 293 297 301 307 311 312 315 318 318 318 320 324 325 326 328 332 332 330 335 339 335 326 322 323 326 332 337 342 340 337 317 296
Height
1473 1474 1474 1475 1476 1477 1478 1478 1478 1476 1474 1474 1475 1475 1475 1475 1474 1473 1472 1471 1469 1468 1467 1466 1465 1463 1462 1461 1459 1458 1456 1455 1453 1451 1450 1448 1447 1446
1467 1468 1469 1470 1471 1472 1473 1473 1473 1473 1470 1469 1470 1470 1470 1470 1469 1468 1467 1466 1464 1463 1462 1461 1460 1458 1457 1456 1454 1453 1451 1450 1448 1446 1444 1443 1441 1440
1462 1463 1464 1465 1466 1467 1468 1468 1468 1468 1466 1465 1465 1465 1465 1464 1463 1463 1462 1461 1459 1458 1457 1456 1455 1453 1452 1451 1449 1448 1446 1444 1442 1441 1439 1438 1436 1434
1457 1458 1459 1460 1461 1462 1463 1463 1463 1463 1463 1460 1460 1460 1460 1460 1459 1458 1457 1456 1454 1453 1452 1451 1449 1448 1447 1446 1444 1442 1440 1439 1437 1436 1434 1432 1430 1429
1453 1453 1454 1455 1456 1457 1458 1458 1458 1458 1458 1456 1455 1455 1455 1455 1454 1453 1452 1451 1449 1448 1447 1445 1444 1443 1442 1441 1439 1437 1435 1434 1432 1431 1429 1427 1425 1423
1448 1449 1449 1450 1451 1452 1452 1453 1453 1453 1453 1452 1451 1450 1450 1450 1449 1448 1446 1445 1444 1443 1442 1441 1439 1438 1437 1436 1434 1432 1431 1429 1427 1425 1424 1422 1420 1418
1443 1444 1445 1446 1446 1447 1447 1447 1448 1448 1447 1447 1446 1445 1445 1445 1445 1444 1442 1440 1439 1438 1437 1436 1434 1433 1432 1431 1429 1427 1426 1424 1422 1420 1419 1417 1415 1413
1439 1439 1440 1441 1442 1442 1442 1443 1443 1443 1443 1442 1442 1441 1441 1441 1441 1439 1438 1436 1434 1434 1432 1430 1430 1428 1427 1426 1425 1423 1421 1419 1418 1416 1414 1412 1410 1408
1435 1435 1436 1436 1437 1437 1437 1437 1438 1438 1439 1439 1438 1437 1437 1437 1436 1435 1434 1432 1431 1430 1429 1426 1425 1424 1423 1422 1420 1418 1417 1415 1413 1411 1410 1408 1405 1404
1431 1432 1432 1432 1432 1432 1432 1432 1432 1433 1434 1434 1433 1433 1433 1432 1432 1431 1430 1428 1427 1426 1425 1422 1421 1420 1419 1418 1416 1414 1413 1411 1409 1407 1405 1404 1401 1399
1428 1428 1428 1428 1428 1428 1428 1428 1428 1429 1429 1429 1429 1429 1428 1428 1428 1427 1426 1424 1422 1421 1421 1419 1417 1415 1414 1413 1412 1411 1409 1407 1405 1403 1401 1399 1397 1395
1425 1425 1426 1426 1426 1426 1425 1425 1425 1425 1425 1424 1425 1424 1424 1424 1424 1423 1422 1421 1419 1418 1417 1416 1414 1413 1410 1409 1408 1407 1405 1404 1402 1399 1397 1394 1392 1390
1422 1422 1423 1423 1423 1423 1423 1423 1422 1422 1421 1421 1421 1421 1420 1420 1419 1419 1418 1418 1416 1415 1414 1413 1412 1411 1409 1406 1404 1403 1402 1400 1398 1395 1393 1390 1388 1386
1421 1421 1421 1421 1421 1421 1421 1420 1419 1419 1418 1418 1418 1417 1417 1416 1416 1415 1415 1414 1413 1412 1411 1411 1409 1408 1406 1403 1401 1399 1398 1396 1394 1391 1389 1387 1384 1383
1419 1419 1419 1419 1418 1418 1418 1417 1417 1416 1416 1415 1414 1414 1414 1413 1412 1412 1411 1410 1409 1409 1408 1407 1406 1405 1403 1401 1398 1396 1394 1392 1391 1388 1386 1384 1382 1380
1418 1418 1418 1417 1416 1416 1416 1415 1415 1414 1413 1413 1412 1412 1411 1410 1410 1409 1408 1407 1406 1405 1405 1404 1403 1402 1400 1398 1396 1393 1392 1390 1388 1386 1383 1381 1379 1377
1416 1416 1415 1415 1415 1414 1414 1414 1413 1412 1412 1411 1410 1410 1409 1408 1407 1406 1405 1404 1403 1402 1401 1400 1399 1398 1397 1395 1393 1391 1389 1387 1385 1383 1381 1378 1376 1375
1415 1414 1414 1414 1413 1413 1413 1412 1411 1411 1410 1409 1409 1408 1407 1406 1405 1404 1403 1402 1401 1400 1398 1397 1396 1395 1394 1392 1392 1389 1387 1385 1383 1381 1379 1376 1373 1372
1413 1413 1413 1412 1412 1412 1411 1411 1410 1409 1409 1408 1407 1406 1405 1404 1403 1402 1401 1400 1399 1398 1397 1396 1395 1393 1392 1390 1389 1388 1385 1383 1380 1378 1376 1374 1372 1370
1412 1412 1412 1411 1411 1410 1410 1409 1409 1408 1407 1406 1405 1405 1404 1403 1402 1401 1399 1399 1397 1396 1395 1394 1393 1392 1391 1390 1387 1385 1384 1382 1379 1376 1374 1372 1370 1369
1411 1411 1410 1410 1410 1409 1409 1408 1408 1407 1406 1405 1404 1403 1402 1401 1400 1399 1398 1397 1396 1395 1394 1393 1392 1391 1390 1388 1386 1383 1382 1381 1378 1376 1373 1371 1368 1366
1410 1410 1409 1409 1408 1408 1407 1407 1406 1405 1404 1403 1402 1401 1401 1400 1399 1398 1397 1396 1395 1394 1393 1392 1391 1390 1389 1387 1384 1382 1380 1379 1377 1375 1373 1371 1368 1365
1409 1409 1408 1408 1407 1406 1406 1405 1404 1403 1403 1402 1401 1400 1399 1398 1398 1397 1396 1395 1395 1393 1392 1391 1390 1389 1387 1386 1384 1382 1379 1377 1375 1373 1371 1369 1368 1366